PEGASUS (42784 NORAD) Tracking and Keplerian Element Data

This shows tracking and keplerian element data for the satellite.

Feedback or suggestion? Click here.




ElementValue
Catalog42784
NamePEGASUS
Epoch Orbit7697
Epoch Day315.86116045
Epoch Year2018
RAAN13.1005
Inclination97.3836
Eccentricity0.0010579
Argument of Perigee280.0885
Mean Anonmoly79.9157
Mean Motion15.22000387
Decay Rate1.309E-05
L11 42784U 17036V 18315.86116045 .00001309 00000-0 60334-4 0 9994
L22 42784 97.3836 13.1005 0010579 280.0885 79.9157 15.22000387 76971

Live tracking and technical data element details for PEGASUS (NORAD 42784). PEGASUS can be tracked NOW for your location showing map with azimuth and elevation plus other details from your city location.

Track the satellite on the map from your city or location and see movement details for azimuth, elevation, latitude, longitude, range, height, and movement on the map or in text.







IsCatalogInMostPopularTable: catalog: 42784, numindb: 124
Update: records affected: 1



GetName: 42784 PEGASUS

Hit Count: updated at: Mon, 12 Nov 2018 17:39:30 GMT